Location: *
(33.8649°S, 62.1526°E)
Time: 16:31:08
(UTC+00:00)

Cosmos 1066 Rocket - Pass Details

Date: 17 January 2021
Orbit: 798 x 894 km, 81.2° (Epoch: 04 March)

Event Time Altitude Azimuth Distance (km) Brightness Sun altitude
Exits shadow 23:12:10 34° 327° (NNW) 1,346 4.7 -19.2°
Maximum altitude 23:14:29 61° 260° (W) 955 4.3 -18.8°
Drops below altitude 10° 23:20:08 10° 179° (S) 2,518 7.2 -18.0°
Sets 23:22:40 0° 176° (S) 3,477 8.1 -17.6°
